STARLINK-33668, 63402

Orbit data source: Space-Track

STARLINK-33668, 63402 is a payload satellite owned by SpaceX/Seattle (US) in LEO that was launched on Mon, 31 Mar 2025 UTC via an FALCON 9 launch vehicle from the Air Force Eastern Test Range (AFETR). Payload-class satellites include a variety of spacecraft equipped with specific instruments for various scientific and technological missions. These include communications satellites like Starlink; space stations such as the ISS; scientific satellites like the Hubble; Earth observation satellites from companies like Planet Labs, Umbra, and HawkEye 360; GPS; miniature CubeSats for education and research; and military/defense satellites.

Loading next visibility...
Identifier
63402, 2025-065D
Orbit
LEO
Country
Flag of USUS
Related business
Manufacturer
SpaceX/Seattle
Mission
Operational Commercial Communications
Bus & Motor
STARLINK V2MO, Unknown motor
Mass
575 kg wet, ~530 kg dry
Launch date (UTC)
2025-03-31 (1 year ago)
Launch vehicle
FALCON 9
Launch site
Air Force Eastern Test Range (AFETR)
Object type
Payload
Rocket body
Debris
Shape & HBR
Box + 2 Pan, 17.7 m
Radar Cross Section
36.964 m², Large (>1 m²)

Expand to show TLE details & history
Last TLE update: 14 hours ago

TLE from 14 hours ago
0 STARLINK-33668
1 63402U 25065D   26171.24784522  .00014014  00000-0  51759-3 0  9994
2 63402  42.9991 247.9960 0001591 275.5861  84.4809 15.27593290 68525
Epoch: 2026-06-20T05:56Z
TLE epoch observation values (Epoch: 2026-06-20T05:56:53.827Z)
Latitude
-0.00001°
Longitude
-109.69349°
Altitude
482.68 km
Speed
7.626 km/s
True Right ascension
16h 31m 59s
True Declination
0° 00' 00"
Sunlit
Object was in full shadow at epoch
Visualization orbit readout
Latitude
Unknown
Longitude
Unknown
Altitude
Unknown
Speed
Unknown
Apparent Right ascension
Unknown
Apparent Declination
Unknown
Sunlit
N/A
Visualization observer readout
Local Sidereal Time
07:19:48
Azimuth
Unknown
Elevation
Unknown
Doppler factor
Unknown
Orbital elements
Apogee altitude
486.047 km
Perigee altitude
483.863 km
Semi-major axis
6,863.092 km
Eccentricity
0.00016
Inclination
42.9991°
RAAN
247.996°
Arg. of periapsis
275.5861°
True anomaly
84.49905°
Mean anomaly
84.4809°
Eccentric anomaly
84.48997°
Mean motion
3.81736 °/min
Orbital period
94.31 mins
BSTAR
0.00051759
Loading maneuver chart data...
Computing Atmospheric mass density...
Loading historical data...
Loading historical data...
Loading historical data...
Loading historical data...
Loading historical data...
Loading historical data...
Loading historical data...

Documentation

Showing up to 5 results
|